[Iaude] MPEC C71: 2024 CC1 [a=1.39,e=0.21,i=5.7,H=24.3]
    mpec at cfa.harvard.edu 
    mpec at cfa.harvard.edu
       
    Tue Feb  6 22:28:00 EST 2024
    
    
  
M.P.E.C. 2024-C71                              Issued 2024 February 7, 03:26 UT
     The Minor Planet Electronic Circulars contain information on unusual
         minor planets, routine data on comets and natural satellites,
         and occasional editorial announcements.  They are published
    on behalf of Division F of the International Astronomical Union by the
          Minor Planet Center, Smithsonian Astrophysical Observatory,
                          Cambridge, MA 02138, U.S.A.
			  
             Prepared using the Tamkin Foundation Computer Network
                              MPC at CFA.HARVARD.EDU
            URL https://www.minorplanetcenter.net/    ISSN 1523-6714
                                    2024 CC1                                    
Observations:
     K24C01C* C2024 02 05.33886207 27 28.390+03 26 57.47         21.27wXEC071F52
     K24C01C  C2024 02 05.35318407 27 28.627+03 26 24.30         20.72wXEC071F52
     K24C01C  C2024 02 05.36038007 27 28.764+03 26 07.66         21.49wXEC071F52
     K24C01C  C2024 02 05.41432407 27 29.728+03 24 02.44         21.18GVEC071F52
     K24C01C  C2024 02 05.41496907 27 29.724+03 24 00.91         21.02GVEC071F52
     K24C01C  C2024 02 05.41645507 27 27.619+03 23 41.90         20.9 GVEC071H01
     K24C01C  C2024 02 05.42015707 27 27.739+03 23 33.26         21.0 GVEC071H01
     K24C01C  C2024 02 05.42613807 27 27.945+03 23 19.21         21.4 GVEC071H01
     K24C01C  C2024 02 05.43039107 27 28.101+03 23 09.46         21.2 GVEC071H01
     K24C01C KB2024 02 06.11061 07 28 03.470+02 57 07.24         21.0 GXEC071H36
     K24C01C KB2024 02 06.14601 07 28 04.423+02 55 47.39         21.4 GXEC071H36
     K24C01C KB2024 02 06.18140 07 28 05.323+02 54 27.36         21.5 GXEC071H36
     K24C01C KB2024 02 06.21324 07 28 06.065+02 53 14.86         21.1 GXEC071H36
     K24C01C KC2024 02 07.12342807 28 50.33 +02 19 21.8          20.9 GVEC071H21
     K24C01C KC2024 02 07.12631807 28 50.42 +02 19 15.4          21.4 GVEC071H21
     K24C01C KC2024 02 07.12929607 28 50.50 +02 19 09.0          21.7 GVEC071H21
Observer details:
F52 Pan-STARRS 2, Haleakala.  Observers J. Herman, T. Lowe, P. Minguez, A.
    Schultz, I. Smith.  Measurers K. Chambers, T. de Boer, J. Fairlamb, H.
    Gao, M. Huber, C.-C. Lin, E. Magnier, Y. Ramanjooloo, R. Wainscoat, R.
    Weryk.  1.8-m Ritchey-Chretien + CCD.
H01 Magdalena Ridge Observatory, Socorro.  Observers W. H. Ryan, E. V. Ryan.
    Measurer W. H. Ryan.  2.4-m f/8.9 Ritchey-Chretien + CCD.
H21 Astronomical Research Observatory, Westfield.  Observer R. Holmes.
    Measurers T. Linder, R. Holmes, L. Horn.  1.3-m f/4.0 astrograph + CCD.
H36 Sandlot Observatory, Scranton.  Observer G. Hug.  0.56-m f/4.8 reflector +
    CMO.
Orbital elements:
2024 CC1                                                 Earth MOID = 0.1233 AU
Epoch 2023 Sept. 13.0 TT = JDT 2460200.5                MPC                     
M 274.10406              (2000.0)            P               Q                  
n   0.59978668     Peri.  200.54194     -0.65765586     -0.74756905             
a   1.3925309      Node   290.70292     +0.70427732     -0.56638454             
e   0.2061664      Incl.    5.69924     +0.26736159     -0.34691363             
P   1.64           H   24.38          G   0.15           U   8                  
Residuals in seconds of arc
240205 F52  0.0   0.0     240205 H01  0.0   0.0     240206 H36  0.1-  0.2-
240205 F52  0.2-  0.0     240205 H01  0.1-  0.1-    240207 H21  0.0   0.0
240205 F52  0.0   0.1+    240205 H01  0.0   0.1+    240207 H21  0.0   0.1-
240205 F52  0.2+  0.0     240206 H36  0.3-  0.1-    240207 H21  0.0   0.1+
240205 F52  0.1-  0.0     240206 H36  0.0   0.1+
240205 H01  0.1+  0.0     240206 H36  0.4+  0.2+
Ephemeris:
2024 CC1                 a,e,i = 1.39, 0.21, 6                   q = 1.1054
Date    TT    R. A. (2000) Decl.     Delta      r    Elong.  Phase     V
2024 01 08    07 23 30.7 +24 59 56   0.1391  1.1222   176.4     3.1    20.7
...
2024 01 23    07 22 10.8 +13 19 59   0.1280  1.1085   165.3    13.0    20.9
...
2024 01 31    07 24 21.1 +07 08 10   0.1301  1.1056   156.4    20.9    21.2
...
2024 02 06    07 27 56.6 +03 01 59   0.1349  1.1055   150.6    25.9    21.4
2024 02 07    07 28 43.2 +02 24 35   0.1359  1.1057   149.8    26.7    21.5
2024 02 08    07 29 33.0 +01 48 18   0.1370  1.1059   148.9    27.4    21.5
...
2024 02 14    07 35 39.3 -01 25 28   0.1449  1.1082   144.2    31.4    21.7
...
2024 02 22    07 46 42.2 -04 42 08   0.1584  1.1140   139.4    35.3    22.1
...
2024 03 08    08 14 26.4 -08 12 45   0.1918  1.1328   133.3    39.6    22.6
A. U. Tomatic                (C) Copyright 2024 MPC           M.P.E.C. 2024-C71
    
    
More information about the Iaude
mailing list